sat.trackr.live / text

‹ back to catalog

STARLINK-34088

NORAD 64025 · 2025-102D

PAYLOAD ACTIVE UNKNOWN

§ Identity

Operator
Country
US
Launch date
2025-05-16
Launch site
AFWTR
Launch vehicle
Mass (kg)
RCS (m²)

Purposes: comms

External: N2YO · Heavens-Above · Gunter

§ Orbital elements

Epoch: 2026-05-25T02:21:04.694400Z

Period
96.11 min
Inclination
70.0008°
Eccentricity
0.0003147
Mean motion
14.98335171 rev/d
Perigee alt
569.9 km
Apogee alt
574.2 km
Semi-major
6,950.2 km
B*
3.5642e-4
RAAN
281.9468°
Arg perigee
267.6955°
Mean anomaly
92.3844°
Rev number
5,740

§ Raw data

STARLINK-340881 64025U 25102D   26145.09797100  .00004163  00000+0  35642-3 0  99942 64025  70.0008 281.9468 0003147 267.6955  92.3844 14.98335171 57405

JSON: /api/v1/satellites/64025 · /tle

For live sub-satellite position, see the globe view (requires WebGL).

§ Visibility from observer

Set your observer location to see the next 7 days of passes ≥ 10°. The values pass through the URL so the page stays shareable.

No JS? Fill the form by hand. The geolocation button needs JavaScript.